DW2380 Paimio FI current weather conditions

sailwx.info

Wind from 360 at 6 knots gusting 13

Air temperature 17.2° C
Dewpoint 6.1° C

Last reported at 2018-Jun-20 15:03 UTC.
Time now 2018-Jun-20 15:35 UTC

Location: N 60°28' E 022°40'.
View on Google Maps.

See reports from other nearby stations

  
Tides and Currents Weather Stations Pressure Air Temp Water Temp Dewpoint Dewpoint Depression Visibility Wind Speed Wind Dir Waves Ship Positions
date/time (UTC)wind fromknots sea level pressurealtimeterstation pressurevisibilityair tempwater tempwave heightnotes
2018-Jun-20 15:03 360 6 gusting 13 17.2
2018-Jun-20 14:48 360 6 gusting 15 17.2
2018-Jun-20 14:33 360 6 gusting 11 17.8
2018-Jun-20 14:17 360 6 gusting 14 17.8
2018-Jun-20 14:02 360 7 gusting 13 17.8
2018-Jun-20 13:47 360 8 gusting 13 18.3
2018-Jun-20 13:32 360 9 gusting 19 18.9
2018-Jun-20 13:17 360 9 gusting 17 18.9
2018-Jun-20 13:02 360 11 gusting 19 18.9
2018-Jun-20 12:47 360 10 gusting 18 18.9
2018-Jun-20 12:32 360 7 gusting 18 19.4
2018-Jun-20 12:16 360 7 gusting 17 19.4
2018-Jun-20 12:01 360 12 gusting 19 19.4
2018-Jun-20 11:46 360 9 gusting 17 19.4
2018-Jun-20 11:31 360 7 gusting 19 19.4
2018-Jun-20 11:16 360 6 gusting 14 20.0
2018-Jun-20 11:01 360 8 gusting 14 20.0
2018-Jun-20 10:46 360 9 gusting 16 20.0
2018-Jun-20 10:31 360 8 gusting 19 19.4
2018-Jun-20 10:16 360 8 gusting 19 19.4
2018-Jun-20 10:01 360 7 gusting 17 20.0
2018-Jun-20 09:46 360 11 gusting 18 19.4
2018-Jun-20 09:29 360 9 gusting 15 20.0
2018-Jun-20 09:14 360 6 gusting 17 19.4
2018-Jun-20 08:59 360 9 gusting 17 19.4
2018-Jun-20 08:44 360 9 gusting 19 18.9
2018-Jun-20 08:29 360 10 gusting 17 19.4
2018-Jun-20 08:14 360 8 gusting 13 18.9
2018-Jun-20 07:59 360 7 gusting 15 18.9
2018-Jun-20 07:43 360 6 gusting 11 18.9
2018-Jun-20 07:28 360 2 gusting 11 18.3
2018-Jun-20 07:13 360 5 gusting 13 17.8
2018-Jun-20 06:58 360 8 gusting 13 17.2
2018-Jun-20 06:43 360 5 gusting 11 16.7
2018-Jun-20 06:27 360 3 gusting 12 16.7
2018-Jun-20 06:12 360 8 gusting 13 16.7
2018-Jun-20 05:42 360 4 gusting 10 16.7
2018-Jun-20 05:27 360 4 gusting 9 16.1
2018-Jun-20 05:11 360 6 gusting 12 16.1
2018-Jun-20 04:56 360 5 gusting 10 15.6
2018-Jun-20 04:41 360 4 gusting 8 15.0
2018-Jun-20 04:26 360 4 gusting 11 15.0
2018-Jun-20 04:11 360 3 gusting 7 14.4
2018-Jun-20 03:56 360 3 gusting 7 14.4
2018-Jun-20 03:41 360 2 gusting 6 14.4
2018-Jun-20 03:26 360 4 gusting 6 14.4
2018-Jun-20 03:11 360 0 gusting 8 14.4
2018-Jun-20 02:56 360 4 gusting 8 13.9
2018-Jun-20 02:41 360 5 gusting 13 13.9
2018-Jun-20 02:26 360 5 gusting 15 13.9
2018-Jun-20 02:09 360 8 gusting 16 13.9
2018-Jun-20 01:54 360 3 gusting 6 13.9
2018-Jun-20 01:39 360 3 gusting 6 13.9
2018-Jun-20 01:24 360 4 gusting 8 13.9
2018-Jun-20 01:09 360 1 gusting 7 13.3
2018-Jun-20 00:54 360 4 gusting 7 13.3
2018-Jun-20 00:38 360 2 gusting 7 13.3
2018-Jun-20 00:23 360 5 gusting 11 13.9
2018-Jun-20 00:08 360 3 gusting 11 13.9
2018-Jun-19 23:53 360 4 gusting 10 13.9
2018-Jun-19 23:38 360 5 gusting 9 13.9
2018-Jun-19 23:23 360 5 gusting 10 13.9
2018-Jun-19 23:07 360 6 gusting 11 13.9
2018-Jun-19 22:52 360 4 gusting 8 13.3
2018-Jun-19 22:37 360 5 gusting 8 13.3
2018-Jun-19 22:22 360 3 gusting 7 13.3
2018-Jun-19 22:07 360 4 gusting 9 13.3
2018-Jun-19 21:52 360 1 gusting 5 13.3
2018-Jun-19 21:37 360 2 gusting 8 13.3
2018-Jun-19 21:21 360 2 gusting 6 13.3
2018-Jun-19 21:06 360 3 gusting 6 13.3
2018-Jun-19 20:51 360 3 gusting 6 13.3
2018-Jun-19 20:36 360 2 gusting 6 13.3
2018-Jun-19 20:21 360 13.9
2018-Jun-19 20:06 360 1 gusting 4 14.4
2018-Jun-19 19:51 360 1 gusting 6 15.0
2018-Jun-19 19:36 360 0 gusting 6 15.0
2018-Jun-19 19:21 360 3 gusting 6 15.6
2018-Jun-19 19:06 360 3 gusting 7 16.1
2018-Jun-19 18:51 360 4 gusting 10 16.7
2018-Jun-19 18:36 360 4 gusting 12 16.7
2018-Jun-19 18:19 360 6 gusting 10 17.2
2018-Jun-19 18:04 360 7 gusting 13 17.8
2018-Jun-19 17:49 360 6 gusting 10 17.8
2018-Jun-19 17:34 360 6 gusting 13 18.3
2018-Jun-19 17:19 360 5 gusting 10 18.3
2018-Jun-19 17:04 360 10 gusting 15 17.8
2018-Jun-19 16:49 360 5 gusting 14 17.8
2018-Jun-19 16:33 360 6 gusting 11 17.2
2018-Jun-19 16:18 360 4 gusting 7 16.7
2018-Jun-19 16:03 360 2 gusting 6 16.1
2018-Jun-19 15:48 360 0 gusting 8 15.0
2018-Jun-19 15:33 360 3 gusting 9 15.0
2018-Jun-19 15:26 360 3 gusting 12 15.0
2018-Jun-19 15:03 360 6 gusting 16 18.3
2018-Jun-19 14:47 360 14 gusting 24 18.3
2018-Jun-19 14:32 360 13 gusting 22 18.9
2018-Jun-19 14:17 360 14 gusting 28 18.9
2018-Jun-19 14:02 360 12 gusting 23 18.9
2018-Jun-19 13:47 360 16 gusting 26 18.3
2018-Jun-19 13:32 360 15 gusting 26 17.8
2018-Jun-19 13:16 360 13 gusting 28 17.2
2018-Jun-19 13:01 360 13 gusting 23 17.2
2018-Jun-19 12:46 360 16 gusting 23 16.7
2018-Jun-19 12:31 360 13 gusting 25 16.1
2018-Jun-19 12:16 360 12 gusting 22 15.0
2018-Jun-19 12:01 360 9 gusting 18 15.0
2018-Jun-19 11:46 360 11 gusting 19 15.0
2018-Jun-19 11:31 360 11 gusting 24 15.0
2018-Jun-19 11:17 360 17 gusting 24 15.6
2018-Jun-19 11:01 360 11 gusting 22 15.6
2018-Jun-19 10:46 360 13 gusting 19 15.0
2018-Jun-19 10:31 360 9 gusting 19 14.4
2018-Jun-19 10:16 360 7 gusting 17 13.9
2018-Jun-19 09:59 360 6 gusting 16 13.9
2018-Jun-19 09:44 360 7 gusting 13 13.9
2018-Jun-19 09:29 360 6 gusting 13 13.9
2018-Jun-19 09:14 360 7 gusting 17 13.9
2018-Jun-19 08:59 360 10 gusting 16 13.9
2018-Jun-19 08:43 360 7 gusting 13 14.4
2018-Jun-19 08:28 360 9 gusting 16 14.4
2018-Jun-19 08:13 360 6 gusting 15 14.4
2018-Jun-19 07:58 360 7 gusting 14 14.4
2018-Jun-19 07:43 360 6 gusting 14 14.4
2018-Jun-19 07:28 360 9 gusting 15 14.4
2018-Jun-19 07:13 360 6 gusting 12 14.4
2018-Jun-19 06:57 360 6 gusting 11 14.4
2018-Jun-19 06:42 360 6 gusting 16 14.4
2018-Jun-19 06:27 360 7 gusting 14 15.0
2018-Jun-19 06:12 360 9 gusting 18 15.6
2018-Jun-19 05:57 360 10 gusting 19 16.1
2018-Jun-19 05:41 360 8 gusting 17 16.1
2018-Jun-19 05:26 360 6 gusting 19 16.1
2018-Jun-19 05:11 360 8 gusting 19 16.1
2018-Jun-19 04:56 360 6 gusting 13 16.1
2018-Jun-19 04:41 360 6 gusting 13 16.1
2018-Jun-19 04:26 360 4 gusting 12 15.6
2018-Jun-19 04:11 360 6 gusting 13 15.6
2018-Jun-19 03:56 360 6 gusting 15 15.0
2018-Jun-19 03:41 360 6 gusting 8 14.4
2018-Jun-19 03:26 360 4 gusting 8 13.9
2018-Jun-19 03:10 360 4 gusting 6 13.9
2018-Jun-19 02:56 360 3 gusting 6 13.3
2018-Jun-19 02:39 360 2 gusting 6 13.3
2018-Jun-19 02:24 360 2 gusting 7 13.3
2018-Jun-19 02:09 360 2 gusting 8 13.3
2018-Jun-19 01:54 360 3 gusting 6 12.8
2018-Jun-19 01:39 360 3 gusting 7 12.8
2018-Jun-19 01:24 360 2 gusting 6 12.2
2018-Jun-19 01:09 360 1 gusting 3 12.2
2018-Jun-19 00:53 360 2 gusting 6 12.2
2018-Jun-19 00:38 360 2 gusting 6 12.2
2018-Jun-19 00:23 360 1 gusting 6 12.2
2018-Jun-19 00:08 360 0 gusting 4 12.2
2018-Jun-18 23:52 360 0 gusting 6 12.2
2018-Jun-18 23:37 360 1 gusting 4 12.2
2018-Jun-18 23:22 360 12.8
2018-Jun-18 23:07 360 2 gusting 6 12.8
2018-Jun-18 22:52 360 2 gusting 4 12.8
2018-Jun-18 22:37 360 12.8
2018-Jun-18 22:22 360 2 gusting 5 13.3
2018-Jun-18 22:06 360 13.3
2018-Jun-18 21:51 360 0 gusting 6 13.9
2018-Jun-18 21:36 360 0 gusting 5 13.9
2018-Jun-18 21:21 360 2 gusting 6 14.4
2018-Jun-18 21:06 360 3 gusting 6 14.4
2018-Jun-18 20:51 360 4 gusting 7 14.4
2018-Jun-18 20:37 360 3 gusting 10 15.0
2018-Jun-18 20:21 360 5 gusting 10 15.0
2018-Jun-18 20:06 360 4 gusting 7 15.0
2018-Jun-18 19:51 360 3 gusting 8 15.0
2018-Jun-18 19:36 360 3 gusting 6 15.0
2018-Jun-18 19:19 360 2 gusting 6 15.6
2018-Jun-18 19:05 360 3 gusting 7 15.6
2018-Jun-18 18:49 360 5 gusting 7 15.6
2018-Jun-18 18:34 360 1 gusting 7 16.1
2018-Jun-18 18:19 360 6 gusting 10 16.1
2018-Jun-18 18:04 360 6 gusting 13 16.1
2018-Jun-18 17:49 360 6 gusting 12 16.1
2018-Jun-18 17:34 360 5 gusting 13 16.1
2018-Jun-18 17:19 360 6 gusting 13 16.7
2018-Jun-18 17:03 360 4 gusting 12 16.7
2018-Jun-18 16:48 360 5 gusting 14 16.7
2018-Jun-18 16:33 360 8 gusting 13 16.7
2018-Jun-18 16:18 360 8 gusting 16 16.7
2018-Jun-18 16:03 360 6 gusting 14 16.7
2018-Jun-18 15:48 360 7 gusting 13 17.2
2018-Jun-18 15:33 360 7 gusting 15 17.2
2018-Jun-18 15:17 360 7 gusting 16 17.2
2018-Jun-18 15:02 360 7 gusting 13 17.2